Location: Arbon
(43.0005°N, 0.7472°E)
Time: 01:42:01
(UTC+00:00)

FALCON 9 DEB - Pass Details

Date: 07 August 2020
Orbit: 427 x 441 km, 53.0° (Epoch: 25 September)

Event Time Altitude Azimuth Distance (km) Brightness Sun altitude
Rises 03:22:58 0° 307° (NW) 2,431 6.8 -15.0°
Reaches altitude 10° 03:25:07 10° 311° (NW) 1,557 5.8 -14.7°
Maximum altitude 03:28:35 59° 33° (NNE) 509 3.7 -14.2°
Drops below altitude 10° 03:32:01 10° 114° (ESE) 1,541 6.3 -13.8°
Sets 03:34:08 0° 118° (ESE) 2,403 7.2 -13.5°
